This is the latest recevied weather packets stored in our database for station/object OK1FET-5. If no packets are shown the sender has not sent any weather packets the latest 10 day(s).
| Time | Temp. | Humidity | Pressure | Rain* | Wind** | Luminosity | Snow |
|---|---|---|---|---|---|---|---|
| 1777863254 | 12.78° C | 43% | 1014 hPa | - | - | - | - |
| 1777862960 | 12.22° C | 43% | 1014.2 hPa | - | - | - | - |
| 1777862665 | 12.22° C | 43% | 1014.2 hPa | - | - | - | - |
| 1777862371 | 12.22° C | 43% | 1014.3 hPa | - | - | - | - |
| 1777862076 | 12.22° C | 43% | 1014.2 hPa | - | - | - | - |
| 1777861782 | 12.78° C | 42% | 1014.2 hPa | - | - | - | - |
| 1777861488 | 12.78° C | 42% | 1014.2 hPa | - | - | - | - |
| 1777861193 | 13.33° C | 42% | 1014.1 hPa | - | - | - | - |
| 1777860899 | 13.33° C | 42% | 1014 hPa | - | - | - | - |
| 1777860605 | 13.89° C | 43% | 1014 hPa | - | - | - | - |
| 1777860310 | 13.89° C | 42% | 1014 hPa | - | - | - | - |
| 1777860016 | 13.89° C | 42% | 1014 hPa | - | - | - | - |
| 1777859721 | 13.89° C | 42% | 1013.8 hPa | - | - | - | - |
| 1777859427 | 14.44° C | 43% | 1013.8 hPa | - | - | - | - |
| 1777859132 | 14.44° C | 43% | 1013.7 hPa | - | - | - | - |
| 1777858838 | 14.44° C | 42% | 1013.7 hPa | - | - | - | - |
| 1777858544 | 14.44° C | 42% | 1013.7 hPa | - | - | - | - |
| 1777858249 | 14.44° C | 41% | 1013.7 hPa | - | - | - | - |
| 1777857955 | 14.44° C | 40% | 1013.6 hPa | - | - | - | - |
| 1777857660 | 14.44° C | 40% | 1013.6 hPa | - | - | - | - |
| 1777857366 | 14.44° C | 41% | 1013.7 hPa | - | - | - | - |
| 1777857366 | 14.44° C | 41% | 1013.7 hPa | - | - | - | - |
| 1777857071 | 14.44° C | 41% | 1013.6 hPa | - | - | - | - |
| 1777856777 | 14.44° C | 40% | 1013.6 hPa | - | - | - | - |
| 1777856483 | 15° C | 41% | 1013.7 hPa | - | - | - | - |
* Rain since midnight (hover to see other rain measurements)
** Current wind speed in m/s (hover to see current wind gust speed)